Regional Weather Roundup
Issued by NWS

Home | Current Version | Previous Version | Graphics & Text | Print | Product List | Glossary On
Versions: 1 2 3 4 5 6 7 8 9 10 11 12 13 14 15 16 17 18 19 20 21 22 23 24 25 26 27 28 29 30 31 32 33 34 35 36 37 38 39 40 41 42 43 44 45 46 47 48 49 50
000
ASUS45 KCYS 280910
RWRWY

WYOMING REGIONAL WEATHER ROUNDUP
NATIONAL WEATHER SERVICE CHEYENNE WY
300 AM MDT TUE MAR 28 2017

NOTE:  "FAIR" INDICATES FEW OR NO CLOUDS BELOW 12,000 FEET
WITH NO SIGNIFICANT WEATHER AND/OR OBSTRUCTIONS TO VISIBILITY.

WYZ001-281000-
YELLOWSTONE NATIONAL PARK

CITY           SKY/WX    TMP DP  RH WIND       PRES   REMARKS
LK YELLOWSTONE   N/A     27  24  89 CALM      30.04S
W YELLOWSTONE  NOT AVBL

$$
WYZ002>013-054>058-071-098>099-281000-
NORTHERN WYOMING

CITY           SKY/WX    TMP DP  RH WIND       PRES   REMARKS
JACKSON        CLOUDY    34  30  86 NE3       30.02S
CODY           LGT RAIN  37  34  89 N8        30.02R WCI  31
GREYBULL       MOCLDY    41  33  73 NW24G37   29.93R
WORLAND        CLOUDY    43  38  82 NW13      29.95R
SHERIDAN       CLOUDY    44  37  76 NW13      29.96R
BUFFALO        LGT RAIN  45  35  68 NW12      29.95S
GILLETTE       FAIR      40  36  86 N5        29.93S
HULETT         FAIR      37  34  87 CALM      29.94R
NEWCASTLE      FAIR      41  34  75 SE7       29.93R

$$
WYZ014>020-022>026-101>103-281000-
CENTRAL WYOMING

CITY           SKY/WX    TMP DP  RH WIND       PRES   REMARKS
BIG PINEY      CLOUDY    34  26  72 N18       29.96R WCI  23
PINEDALE       CLOUDY    32  28  86 NW21      29.95S WCI  20
DUBOIS         FLURRIES  32  30  93 NW7       29.96S WCI  26
LANDER         LGT RAIN  34  33  96 W10       29.95S WCI  26
RIVERTON       LGT RAIN  39  37  92 N12       29.94S WCI  32
CASPER         CLOUDY    39  34  82 W6        29.89F WCI  35
DOUGLAS        CLOUDY    41  38  89 SE10      29.93R

$$
WYZ021-027>030-104>119-281000-
SOUTHERN WYOMING

CITY           SKY/WX    TMP DP  RH WIND       PRES   REMARKS
EVANSTON       CLOUDY    31  28  89 N18       29.98S WCI  19
KEMMERER         N/A     32  28  86 NW14G22   29.97S WCI  22
FORT BRIDGER   LGT SNOW  33  33 100 NW12G18   30.00S WCI  24
ROCK SPRINGS   CLOUDY    36  33  89 N10       29.92S WCI  28
DIXON            N/A     36  34  91 CALM      29.88S
RAWLINS        CLOUDY    36  33  89 E7        29.89S WCI  30
SARATOGA       CLOUDY    34  34 100 CALM      29.89F
LARAMIE        CLOUDY    35  34  96 N6        29.88S WCI  30
CHEYENNE       CLOUDY    40  37  89 N8        29.87S WCI  34
TORRINGTON     LGT RAIN  45  44  97 NE7       29.88F
PINE BLUFFS    CLOUDY    43  41  93 NE6       29.86S

$$



USA.gov is the U.S. government's official web portal to all federal, state and local government web resources and services.